San Jose del Cabo, Mexico

12:09 AM MDT on April 26, 2017 (GMT -0600)
Los Cabos International

Weather History for MMSD - October, 2012

Change the Weather History Date:

Friday, October 19, 2012

  Actual Average Record
Temperature  
Mean Temperature 76 °F -  
Max Temperature 87 °F 90 °F 96 °F (2003)
Min Temperature 64 °F 71 °F 64 °F (2010)
Cooling Degree Days 10    
Growing Degree Days 26 (Base 50)    
Moisture  
Dew Point 64 °F    
Average Humidity 63    
Maximum Humidity 88    
Minimum Humidity 37    
Precipitation  
Precipitation 0.00 in - - ()
Sea Level Pressure  
Sea Level Pressure 29.84 in    
Wind  
Wind Speed 5 mph ()    
Max Wind Speed 16 mph    
Max Gust Speed -    
Visibility 14.8 miles    
Events      
Averages and records for this station are not official NWS values.
T = Trace of Precipitation, MM = Missing Value Source: Averaged Metar Reports

Daily Weather History Graph

Daily Weather History Graph

Search for Another Location

Airport or City:

Trip Planner

Search our weather history database for the weather conditions in past years. The results will help you decide how hot, cold, wet, or windy it might be!

Date:

Astronomy

Oct. 19, 2012 Rise Set
Actual Time 7:17 AM MDT 6:49 PM MDT
Civil Twilight 6:54 AM MDT 7:12 PM MDT
Nautical Twilight 6:28 AM MDT 7:38 PM MDT
Astronomical Twilight 6:02 AM MDT 8:04 PM MDT
Moon 11:41 AM MDT (10/19) 10:52 PM MDT (10/19)
Length of Visible Light 12h 17m
Length of Day
11h 31m
Waxing Crescent, 24% of the Moon is Illuminated
Oct 19
Waxing Crescent
Oct 21
First Quarter
Oct 29
Full
Nov 6
Last Quarter
Nov 13
New

Hourly Weather History & Observations

Time (MDT) Temp. Heat Index Dew Point Humidity Pressure Visibility Wind Dir Wind Speed Gust Speed Precip Events Conditions
6:47 AM 64.4 °F - 59.0 °F 83% 29.86 in 12.0 mi West 4.6 mph - N/A   Clear
7:46 AM 66.2 °F - 59.0 °F 78% 29.87 in 15.0 mi North 3.5 mph - N/A   Clear
8:41 AM 69.8 °F - 59.0 °F 68% 29.86 in 15.0 mi WNW 3.5 mph - N/A   Clear
9:41 AM 75.2 °F - 62.6 °F 65% 29.91 in 15.0 mi North 3.5 mph - N/A   Clear
10:11 AM 78.8 °F - 62.6 °F 57% 29.90 in 15.0 mi Calm Calm - N/A   Clear
10:41 AM 82.4 °F 81.4 °F 53.6 °F 37% 29.90 in 15.0 mi NNW 4.6 mph - N/A   Clear
11:41 AM 84.2 °F 83.8 °F 59.0 °F 42% 29.85 in 15.0 mi North 10.4 mph - N/A   Clear
12:43 PM 86.0 °F 85.4 °F 59.0 °F 40% 29.87 in 15.0 mi WNW 4.6 mph - N/A   Clear
1:42 PM 87.8 °F 88.5 °F 62.6 °F 43% 29.83 in 15.0 mi NNW 5.8 mph - N/A   Clear
2:48 PM 87.8 °F 87.6 °F 60.8 °F 40% 29.77 in 15.0 mi NE 8.1 mph - N/A   Clear
3:42 PM 86.0 °F 89.4 °F 68.0 °F 55% 29.80 in 15.0 mi SE 16.1 mph - N/A   Clear
4:47 PM 84.2 °F 86.6 °F 66.2 °F 55% 29.80 in 15.0 mi SE 12.7 mph - N/A   Clear
5:49 PM 82.4 °F 84.6 °F 66.2 °F 58% 29.78 in 15.0 mi SE 9.2 mph - N/A   Clear
6:44 PM 80.6 °F 82.7 °F 66.2 °F 61% 29.82 in 15.0 mi SE 5.8 mph - N/A   Clear
8:00 PM 78.8 °F - 68.0 °F 69% 29.83 in 15.0 mi North 4.6 mph - N/A   Clear
8:40 PM 77.0 °F - 69.8 °F 78% 29.82 in 15.0 mi NW 4.6 mph - N/A   Clear
9:43 PM 75.2 °F - 69.8 °F 83% 29.86 in 15.0 mi West 4.6 mph - N/A   Clear
10:41 PM 73.4 °F - 69.8 °F 88% 29.87 in 15.0 mi WSW 4.6 mph - N/A   Clear
11:42 PM 71.6 °F - 68.0 °F 88% 29.83 in 15.0 mi WSW 8.1 mph - N/A   Clear